Date String (YYYY-MM-DD hh:mm:ss) UTC,Instrument flags,absolute air pressure of the measurement (hPa),sample flow rate (lpm),inlet stack bypass flow (lpm),air temperature of the measurement (°C),ambient temperature measured by the external sensor (°C),aerosol sample conditioner tube jacket temperature (°C),OPC LED temperature (°C),internal box temperature (°C),relative humidity of the measurement (%),span deviation,mass concentration of particles derived from Lorenz-Mie calculation of OPC scattering (μg/m³),mass concentration of particles derived from Lorenz-Mie calculation of OPC scattering (μg/m³),mass concentration of particles derived from Lorenz-Mie calculation of OPC scattering (μg/m³)
DateTimeUTC,F1_M11,P_M11,Q1_M11,Q2_M11,T1_M11,T2_M11,T3_M11,T4_M11,T5_M11,U1_M11,ZSPAN_M11,X0_M11,X2_M11,X1_M11
2023-10-02 12:00:00,SystemResetWarning,0829.2,5.01,000.00,027.8,026.4,000.0,036.3,029.4,19.0,0000.0,0009.56,0004.37,0003.53
2023-10-02 12:01:00,SystemResetWarning,0829.2,5.00,000.00,027.8,026.4,000.0,036.3,029.4,19.0,0000.0,0008.86,0004.34,0003.53
2023-10-02 12:02:00,SystemResetWarning,0829.3,4.99,000.00,027.8,026.4,000.0,036.3,029.4,19.0,0000.0,0008.34,0004.35,0003.54
2023-10-02 12:03:00,SystemResetWarning,0829.4,4.99,000.00,027.8,026.4,000.0,036.3,029.4,18.9,0000.0,0008.41,0004.37,0003.54
2023-10-02 12:04:00,SystemResetWarning,0829.3,5.00,000.00,027.8,026.4,000.0,036.3,029.4,18.9,0000.0,0008.49,0004.42,0003.55
2023-10-02 12:05:00,SystemResetWarning,0829.3,5.00,000.00,027.7,026.4,000.0,036.3,029.3,19.0,0000.0,0008.61,0004.46,0003.55
2023-10-02 12:06:00,SystemResetWarning,0829.4,5.00,000.00,027.7,026.4,000.0,036.3,029.3,19.0,0000.0,0009.34,0004.48,0003.55
2023-10-02 12:07:00,SystemResetWarning,0829.4,5.01,000.00,027.7,026.4,000.0,036.3,029.3,19.1,0000.0,0010.11,0004.46,0003.55
2023-10-02 12:08:00,SystemResetWarning,0829.3,5.00,000.00,027.7,026.3,000.0,036.3,029.3,19.1,0000.0,0010.33,0004.44,0003.55
2023-10-02 12:09:00,SystemResetWarning,0829.4,4.99,000.00,027.7,026.3,000.0,036.3,029.3,19.0,0000.0,0010.89,0004.41,0003.57
2023-10-02 12:10:00,SystemResetWarning,0829.3,5.00,000.00,027.7,026.3,000.0,036.3,029.3,18.8,0000.0,0010.79,0004.39,0003.58
2023-10-02 12:11:00,SystemResetWarning,0829.3,5.00,000.00,027.7,026.3,000.0,036.2,029.3,18.6,0000.0,0010.66,0004.35,0003.58
2023-10-02 12:12:00,SystemResetWarning,0829.3,5.00,000.00,027.7,026.3,000.0,036.2,029.2,18.7,0000.0,0011.03,0004.34,0003.58
2023-10-02 12:13:00,SystemResetWarning,0829.3,5.00,000.00,027.7,026.3,000.0,036.2,029.2,18.8,0000.0,0010.92,0004.32,0003.57
2023-10-02 12:14:00,SystemResetWarning,0829.3,5.01,000.00,027.6,026.3,000.0,036.2,029.2,18.8,0000.0,0011.06,0004.34,0003.56
2023-10-02 12:15:00,SystemResetWarning,0829.4,5.00,000.00,027.6,026.3,000.0,036.2,029.2,18.9,0000.0,0011.25,0004.31,0003.56
2023-10-02 12:16:00,SystemResetWarning,0829.3,5.00,000.00,027.6,026.3,000.0,036.2,029.2,19.0,0000.0,0011.68,0004.28,0003.55
2023-10-02 12:17:00,SystemResetWarning,0829.3,4.99,000.00,027.6,026.2,000.0,036.2,029.2,19.1,0000.0,0011.34,0004.27,0003.55
2023-10-02 12:18:00,SystemResetWarning,0829.4,4.99,000.00,027.6,026.2,000.0,036.2,029.2,19.3,0000.0,0010.23,0004.29,0003.55
2023-10-02 12:19:00,SystemResetWarning,0829.4,5.01,000.00,027.6,026.2,000.0,036.2,029.2,19.3,0000.0,0010.09,0004.31,0003.55
2023-10-02 12:20:00,SystemResetWarning,0829.3,5.01,000.00,027.6,026.2,000.0,036.2,029.2,19.2,0000.0,0009.40,0004.30,0003.55
2023-10-02 12:21:00,SystemResetWarning,0829.3,5.01,000.00,027.6,026.2,000.0,036.2,029.2,19.2,0000.0,0009.42,0004.32,0003.55
2023-10-02 12:22:00,SystemResetWarning,0829.3,5.00,000.00,027.6,026.2,000.0,036.2,029.2,19.3,0000.0,0009.46,0004.32,0003.55
2023-10-02 12:23:00,SystemResetWarning,0829.3,5.00,000.00,027.6,026.2,000.0,036.2,029.2,19.4,0000.0,0008.87,0004.28,0003.54
2023-10-02 12:24:00,SystemResetWarning,0829.3,5.00,000.00,027.6,026.2,000.0,036.1,029.2,19.4,0000.0,0008.88,0004.28,0003.55
2023-10-02 12:25:00,SystemResetWarning,0829.3,5.00,000.00,027.6,026.2,000.0,036.1,029.2,19.4,0000.0,0008.76,0004.26,0003.56
2023-10-02 12:26:00,SystemResetWarning,0829.3,5.00,000.00,027.6,026.2,000.0,036.1,029.2,19.5,0000.0,0008.80,0004.29,0003.56
2023-10-02 12:27:00,SystemResetWarning,0829.4,5.00,000.00,027.6,026.2,000.0,036.1,029.2,19.5,0000.0,0008.38,0004.30,0003.57
2023-10-02 12:28:00,SystemResetWarning,0829.3,5.00,000.00,027.6,026.2,000.0,036.1,029.2,19.7,0000.0,0008.33,0004.30,0003.57
2023-10-02 12:29:00,SystemResetWarning,0829.3,5.01,000.00,027.6,026.2,000.0,036.1,029.2,19.8,0000.0,0008.28,0004.29,0003.57
2023-10-02 12:30:00,SystemResetWarning,0829.4,5.01,000.00,027.6,026.2,000.0,036.1,029.2,19.8,0000.0,0009.09,0004.29,0003.58
2023-10-02 12:31:00,SystemResetWarning,0829.3,5.01,000.00,027.6,026.2,000.0,036.1,029.2,19.4,0000.0,0009.75,0004.31,0003.57
2023-10-02 12:32:00,SystemResetWarning,0829.3,5.01,000.00,027.6,026.2,000.0,036.1,029.2,19.1,0000.0,0009.58,0004.31,0003.56
2023-10-02 12:33:00,SystemResetWarning,0829.3,5.00,000.00,027.6,026.2,000.0,036.1,029.2,19.2,0000.0,0009.74,0004.35,0003.57
2023-10-02 12:34:00,SystemResetWarning,0829.3,5.00,000.00,027.6,026.2,000.0,036.1,029.2,19.3,0000.0,0009.80,0004.35,0003.58
2023-10-02 12:35:00,SystemResetWarning,0829.4,4.99,000.00,027.6,026.2,000.0,036.1,029.2,19.3,0000.0,0009.91,0004.38,0003.58
2023-10-02 12:36:00,SystemResetWarning,0829.4,5.00,000.00,027.6,026.2,000.0,036.1,029.2,19.4,0000.0,0010.23,0004.38,0003.58
2023-10-02 12:37:00,SystemResetWarning,0829.4,5.00,000.00,027.6,026.2,000.0,036.1,029.2,19.3,0000.0,0010.43,0004.38,0003.58
2023-10-02 12:38:00,SystemResetWarning,0829.5,5.00,000.00,027.6,026.2,000.0,036.1,029.2,19.4,0000.0,0010.68,0004.43,0003.59
2023-10-02 12:39:00,SystemResetWarning,0829.5,5.00,000.00,027.6,026.2,000.0,036.1,029.2,19.5,0000.0,0011.31,0004.42,0003.58
2023-10-02 12:40:00,SystemResetWarning,0829.5,5.00,000.00,027.6,026.2,000.0,036.1,029.2,19.6,0000.0,0011.48,0004.39,0003.59
2023-10-02 12:41:00,SystemResetWarning,0829.6,4.99,000.00,027.6,026.2,000.0,036.1,029.2,19.5,0000.0,0010.73,0004.37,0003.58
2023-10-02 12:42:00,SystemResetWarning,0829.6,5.00,000.00,027.6,026.2,000.0,036.1,029.2,19.5,0000.0,0009.98,0004.35,0003.59
2023-10-02 12:43:00,SystemResetWarning,0829.7,5.00,000.00,027.6,026.2,000.0,036.1,029.2,19.6,0000.0,0009.95,0004.34,0003.59
2023-10-02 12:44:00,SystemResetWarning,0829.7,5.00,000.00,027.6,026.2,000.0,036.1,029.2,19.7,0000.0,0010.72,0004.32,0003.59
2023-10-02 12:45:00,SystemResetWarning,0829.7,5.01,000.00,027.6,026.2,000.0,036.1,029.3,19.6,0000.0,0011.02,0004.34,0003.59
2023-10-02 12:46:00,SystemResetWarning,0829.7,5.01,000.00,027.6,026.2,000.0,036.1,029.2,19.5,0000.0,0010.99,0004.34,0003.60
2023-10-02 12:47:00,SystemResetWarning,0829.6,5.00,000.00,027.6,026.2,000.0,036.1,029.2,19.4,0000.0,0011.09,0004.33,0003.59
2023-10-02 12:48:00,SystemResetWarning,0829.7,4.98,000.00,027.6,026.2,000.0,036.1,029.2,19.5,0000.0,0010.83,0004.33,0003.58
2023-10-02 12:49:00,SystemResetWarning,0829.6,5.00,000.00,027.6,026.2,000.0,036.1,029.2,19.5,0000.0,0010.55,0004.31,0003.58
2023-10-02 12:50:00,SystemResetWarning,0829.6,5.02,000.00,027.5,026.2,000.0,036.1,029.2,19.5,0000.0,0010.36,0004.31,0003.58
2023-10-02 12:51:00,SystemResetWarning,0829.6,5.00,000.00,027.6,026.2,000.0,036.1,029.2,19.4,0000.0,0010.41,0004.36,0003.59
2023-10-02 12:52:00,SystemResetWarning,0829.5,4.99,000.00,027.6,026.2,000.0,036.1,029.2,19.3,0000.0,0010.32,0004.34,0003.60
2023-10-02 12:53:00,SystemResetWarning,0829.5,4.99,000.00,027.6,026.2,000.0,036.1,029.2,19.3,0000.0,0010.48,0004.34,0003.60
2023-10-02 12:54:00,SystemResetWarning,0829.4,5.00,000.00,027.6,026.2,000.0,036.1,029.2,19.5,0000.0,0010.66,0004.36,0003.60
2023-10-02 12:55:00,SystemResetWarning,0829.4,5.00,000.00,027.6,026.2,000.0,036.1,029.3,19.5,0000.0,0009.94,0004.37,0003.60
2023-10-02 12:56:00,SystemResetWarning,0829.4,5.00,000.00,027.6,026.2,000.0,036.1,029.3,19.4,0000.0,0009.87,0004.37,0003.60
2023-10-02 12:57:00,SystemResetWarning,0829.4,5.01,000.00,027.6,026.2,000.0,036.1,029.3,19.4,0000.0,0010.18,0004.37,0003.61
2023-10-02 12:58:00,SystemResetWarning,0829.3,5.01,000.00,027.6,026.2,000.0,036.1,029.2,19.3,0000.0,0010.13,0004.39,0003.61
2023-10-02 12:59:00,SystemResetWarning,0829.4,5.01,000.00,027.6,026.2,000.0,036.1,029.2,19.1,0000.0,0010.37,0004.41,0003.63
